This demonstration page uses our WeatherBlox Daily Observations layout. Learn more.

Left ArrowRight Arrow

39.51506, -84.39828

Hourly Observations for September 7, 2015

Temp ( °F °C ) Dew Point ( °F °C ) Humidity (%) Winds ( mph kmh ) Pressure ( in mb ) Visibility ( mi km ) Precip ( " mm )
12:15 am 00:15 Clear 71 21.5 67 19.2 87 87 Calm 30.06 1018 7 11.26538 0 0
12:35 am 00:35 Clear 70 21 66 18.8 87 87 Calm 30.06 1018 7 11.26538 0 0
12:55 am 00:55 Clear 70 20.9 66 18.7 87 87 Calm 30.06 1018 7 11.26538 0 0
1:15 am 01:15 Clear with Mist and Fog 69 20.8 66 18.7 88 88 Calm 30.06 1018 5 8.0467 0 0
1:35 am 01:35 Clear with Mist and Fog 69 20.8 66 18.7 88 88 Calm 30.06 1018 5 8.0467 0 0
1:55 am 01:55 Clear with Mist and Fog 69 20.8 66 19 90 90 Calm 30.06 1018 4 6.43736 0 0
2:15 am 02:15 Clear with Mist and Fog 69 20.8 66 19 90 90 Calm 30.06 1018 4 6.43736 0 0
2:35 am 02:35 Clear with Mist and Fog 69 20.8 66 19 90 90 Calm 30.06 1018 2.5 4.02335 0 0
2:55 am 02:55 Clear with Mist and Fog 69 20.8 66 19 90 90 Calm 30.06 1018 3 4.82802 0 0
3:15 am 03:15 Clear with Mist and Fog 69 20.8 66 19 90 90 Calm 30.06 1018 4 6.43736 0 0
3:35 am 03:35 Clear with Mist and Fog 69 20.8 66 19 90 90 Calm 30.06 1018 4 6.43736 0 0
3:55 am 03:55 Clear with Mist and Fog 69 20.8 66 19 90 90 Calm 30.06 1018 2.5 4.02335 0 0
4:15 am 04:15 Clear with Mist and Fog 69 20.8 66 19 90 90 Calm 30.06 1018 3 4.82802 0 0
4:35 am 04:35 Clear with Mist and Fog 69 20.8 66 19 90 90 Calm 30.06 1018 4 6.43736 0 0
4:55 am 04:55 Clear with Mist and Fog 69 20.8 66 19.1 90 90 Calm 30.06 1018 4 6.43736 0 0
5:15 am 05:15 Clear with Mist and Fog 69 20.8 66 19.1 90 90 Calm 30.06 1018 4 6.43736 0 0
5:35 am 05:35 Clear with Mist and Fog 69 20.8 66 19.1 90 90 Calm 30.06 1018 2.5 4.02335 0 0
5:55 am 05:55 Clear with Mist and Fog 68 20 65 18.2 89 89 Calm 30.06 1018 2.5 4.02335 0 0
6:15 am 06:15 Clear with Mist and Fog 69 20.8 66 19.1 90 90 Calm 30.06 1018 2.5 4.02335 0 0
6:35 am 06:35 Clear with Mist and Fog 69 20.8 66 19.1 90 90 Calm 30.06 1018 3 4.82802 0 0
6:55 am 06:55 Clear with Mist and Fog 68 19.8 65 18.1 90 90 Calm 30.06 1018 2 3.21868 0 0
7:15 am 07:15 Mostly Cloudy with Fog 67 19.5 64 18 91 91 Calm 30.06 1018 0.25 0.402335 0 0
7:35 am 07:35 Sunny with Mist and Fog 67 19.7 65 18.2 91 91 Calm 30.09 1019 2.5 4.02335 0 0
7:55 am 07:55 Sunny with Mist and Fog 69 20.8 67 19.3 91 91 Calm 30.09 1019 2 3.21868 0 0
8:15 am 08:15 Sunny with Mist and Fog 69 20.8 67 19.3 91 91 Calm 30.09 1019 2.5 4.02335 0 0
8:35 am 08:35 Sunny with Mist and Fog 71 21.7 68 20.2 91 91 Calm 30.09 1019 4 6.43736 0 0
8:55 am 08:55 Sunny with Mist and Fog 74 23.6 71 21.7 89 89 Calm 30.09 1019 5 8.0467 0 0
9:15 am 09:15 Sunny 74 23.6 69 20.4 82 82 Calm 30.12 1020 7 11.26538 0 0
9:35 am 09:35 Sunny 77 25.1 70 21.3 80 80 Calm 30.12 1020 7 11.26538 0 0
9:55 am 09:55 Sunny 77 25.1 69 20.6 76 76 Calm 30.12 1020 10 16.0934 0 0
10:15 am 10:15 Sunny 80 26.5 71 21.5 74 74 Calm 30.09 1019 10 16.0934 0 0
10:35 am 10:35 Sunny 80 26.5 70 20.9 71 71 Calm 30.12 1020 10 16.0934 0 0
10:55 am 10:55 Sunny 81 27 70 21.2 71 71 Calm 30.09 1019 10 16.0934 0 0
11:15 am 11:15 Sunny 82 28 71 21.6 68 68 Calm 30.09 1019 10 16.0934 0 0
11:35 am 11:35 Sunny 83 28.5 71 21.4 65 65 SSW 3 6 30.09 1019 10 16.0934 0 0
11:55 am 11:55 Sunny 84 28.8 70 21.2 64 64 Calm 30.09 1019 10 16.0934 0 0
12:15 pm 12:15 Sunny 88 31.1 72 22.3 59 59 SSW 3 6 30.06 1018 10 16.0934 0 0
12:35 pm 12:35 Sunny 90 32.1 71 21.6 54 54 SSW 7 11 30.06 1018 10 16.0934 0 0
12:55 pm 12:55 Sunny 90 32.1 70 21 52 52 Calm 30.03 1017 10 16.0934 0 0
1:15 pm 13:15 Sunny 90 32.1 68 19.9 48 48 W 3 6 30.03 1017 10 16.0934 0 0
1:35 pm 13:35 Partly Cloudy 90 32.1 65 18.4 44 44 W 5 7 30.03 1017 10 16.0934 0 0
1:55 pm 13:55 Partly Cloudy 90 32.1 65 18.4 44 44 W 5 7 30.03 1017 10 16.0934 0 0
2:15 pm 14:15 Partly Cloudy 90 32.1 65 18.6 45 45 WNW 3 6 30.03 1017 10 16.0934 0 0
2:35 pm 14:35 Sunny 90 32.1 67 19.2 46 46 SW 5 7 30.03 1017 10 16.0934 0 0
2:55 pm 14:55 Sunny 90 32.1 66 18.9 46 46 WSW 6 9 30 1016 10 16.0934 0 0
3:15 pm 15:15 Sunny 90 32.1 66 18.8 45 45 SW 3 6 30 1016 10 16.0934 0 0
3:35 pm 15:35 Sunny 90 32.1 65 18.4 44 44 NW 5 7 30 1016 10 16.0934 0 0
3:55 pm 15:55 Sunny 90 32.1 65 18.6 45 45 SW 3 6 30 1016 10 16.0934 0 0
4:15 pm 16:15 Sunny 90 32.1 65 18.3 44 44 Calm 29.97 1015 10 16.0934 0 0
4:35 pm 16:35 Sunny 90 32.4 65 18.1 43 43 SW 7 11 29.97 1015 10 16.0934 0 0
4:55 pm 16:55 Sunny 90 32.1 64 17.5 42 42 WSW 6 9 29.97 1015 10 16.0934 0 0
5:15 pm 17:15 Partly Cloudy 90 32.1 65 18.1 43 43 W 5 7 29.97 1015 10 16.0934 0 0
5:35 pm 17:35 Sunny 90 32.1 68 19.8 48 48 W 5 7 29.97 1015 10 16.0934 0 0
5:55 pm 17:55 Sunny 90 32.1 64 18 43 43 S 3 6 29.97 1015 10 16.0934 0 0
6:15 pm 18:15 Partly Cloudy 90 32.1 65 18.2 44 44 S 3 6 29.97 1015 10 16.0934 0 0
6:35 pm 18:35 Partly Cloudy 90 32.1 66 18.9 46 46 SSW 7 11 29.94 1014 10 16.0934 0 0
6:55 pm 18:55 Partly Cloudy 90 32.1 69 20.3 50 50 SSW 6 9 29.94 1014 10 16.0934 0 0
7:15 pm 19:15 Partly Cloudy 90 32.1 67 19.4 47 47 SSW 3 6 29.97 1015 10 16.0934 0 0
7:35 pm 19:35 Partly Cloudy 83 28.1 71 21.5 67 67 W 5 7 30 1016 10 16.0934 0 0
7:55 pm 19:55 Partly Cloudy 81 27.4 70 21.1 69 69 Calm 30 1016 10 16.0934 0 0
8:15 pm 20:15 Partly Cloudy 80 26.6 71 21.7 75 75 Calm 30 1016 10 16.0934 0 0
8:35 pm 20:35 Partly Cloudy 78 25.3 71 21.5 80 80 Calm 30 1016 10 16.0934 0 0
8:55 pm 20:55 Clear 77 25.1 72 22.1 83 83 Calm 30 1016 10 16.0934 0 0
9:15 pm 21:15 Clear 74 23.6 70 20.9 85 85 Calm 30 1016 10 16.0934 0 0
9:35 pm 21:35 Clear 75 23.7 69 20.6 83 83 N 3 6 30.03 1017 10 16.0934 0 0
9:55 pm 21:55 Clear 74 23.6 70 20.9 85 85 Calm 30.03 1017 10 16.0934 0 0
10:15 pm 22:15 Clear 74 23.6 69 20.8 84 84 Calm 30.03 1017 10 16.0934 0 0
10:35 pm 22:35 Clear 74 23.6 70 21.2 86 86 Calm 30.03 1017 7 11.26538 0 0
10:55 pm 22:55 Clear 74 23.6 70 21.3 87 87 Calm 30.03 1017 7 11.26538 0 0
11:15 pm 23:15 Clear 74 23.6 70 21.3 87 87 Calm 30.03 1017 7 11.26538 0 0
11:35 pm 23:35 Clear 74 23.3 70 21.1 88 88 Calm 30.03 1017 7 11.26538 0 0
11:55 pm 23:55 Clear 74 23.2 70 21 87 87 Calm 30.03 1017 7 11.26538 0 0

Powered by AerisWeather